TimeWET,TemperatureF,Dew PointF,Humidity,Sea Level PressureIn,VisibilityMPH,Wind Direction,Wind SpeedMPH,Gust SpeedMPH,PrecipitationIn,Events,Conditions,WindDirDegrees,DateUTC
12:00 AM,51,49,92,30.21,6,East,4.6,,,,Clear,90,2014-01-28 00:00:00
12:00 AM,51.8,50.0,94,30.18,-9999.0,East,3.5,-,N/A,,Unknown,100,2014-01-28 00:00:00
12:30 AM,50.0,50.0,100,30.18,5.0,East,3.5,-,N/A,,Light Drizzle,80,2014-01-28 00:30:00
1:00 AM,50.0,48.2,94,30.18,5.0,East,4.6,-,N/A,,Unknown,80,2014-01-28 01:00:00
1:30 AM,50.0,48.2,94,30.18,3.7,ENE,5.8,-,N/A,,Unknown,60,2014-01-28 01:30:00
2:00 AM,50.0,48.2,94,30.18,3.7,ENE,4.6,-,N/A,,Light Drizzle,70,2014-01-28 02:00:00
2:30 AM,50.0,50.0,100,30.18,4.3,ESE,4.6,-,N/A,,Unknown,110,2014-01-28 02:30:00
3:00 AM,51,50,96,30.18,4,East,4.6,,,,,90,2014-01-28 03:00:00
3:00 AM,50.0,50.0,100,30.15,4.3,East,4.6,-,N/A,,Unknown,90,2014-01-28 03:00:00
3:03 AM,50.0,50.0,100,30.15,4.3,East,4.6,-,N/A,,Mostly Cloudy,100,2014-01-28 03:03:00
4:00 AM,51.8,50.0,94,30.12,4.3,East,6.9,-,N/A,,Mostly Cloudy,100,2014-01-28 04:00:00
4:30 AM,50.0,50.0,100,30.12,3.7,East,4.6,-,N/A,,Light Drizzle,90,2014-01-28 04:30:00
4:46 AM,48.2,48.2,100,30.09,3.7,East,4.6,-,N/A,,Scattered Clouds,80,2014-01-28 04:46:00
5:00 AM,48.2,48.2,100,30.09,3.7,East,4.6,-,N/A,,Scattered Clouds,80,2014-01-28 05:00:00
5:30 AM,48.2,48.2,100,30.09,3.1,East,5.8,-,N/A,,Light Drizzle,100,2014-01-28 05:30:00
6:00 AM,48,48,99,30.12,3,East,6.9,,,,,100,2014-01-28 06:00:00
6:00 AM,48.2,48.2,100,30.09,3.1,East,6.9,-,N/A,,Unknown,100,2014-01-28 06:00:00
6:30 AM,48.2,48.2,100,30.09,3.1,East,5.8,-,N/A,,Light Drizzle,80,2014-01-28 06:30:00
7:00 AM,46.4,46.4,100,30.09,3.1,East,4.6,-,N/A,,Unknown,80,2014-01-28 07:00:00
7:28 AM,46.4,46.4,100,30.06,0.5,ENE,5.8,-,N/A,Fog,Fog,70,2014-01-28 07:28:00
7:30 AM,46.4,46.4,100,30.06,1.9,East,5.8,-,N/A,,Light Drizzle,80,2014-01-28 07:30:00
8:00 AM,48.2,48.2,100,30.06,0.2,ENE,4.6,-,N/A,,Mostly Cloudy,70,2014-01-28 08:00:00
8:30 AM,48.2,48.2,100,30.06,0.2,ENE,4.6,-,N/A,Fog,Fog,70,2014-01-28 08:30:00
9:00 AM,48,48,100,30.09,0,East,3.5,,,,Mist,90,2014-01-28 09:00:00
9:00 AM,48.2,48.2,100,30.06,0.4,East,3.5,-,N/A,Fog,Fog,80,2014-01-28 09:00:00
9:30 AM,48.2,48.2,100,30.06,0.6,East,4.6,-,N/A,Fog,Fog,90,2014-01-28 09:30:00
10:00 AM,50.0,50.0,100,30.06,1.2,East,4.6,-,N/A,,Mostly Cloudy,90,2014-01-28 10:00:00
10:30 AM,53.6,53.6,100,30.06,5.6,ESE,4.6,-,N/A,,Scattered Clouds,110,2014-01-28 10:30:00
10:36 AM,53.6,53.6,100,30.06,5.6,East,4.6,-,N/A,,Partly Cloudy,100,2014-01-28 10:36:00
11:00 AM,55.4,51.8,88,30.06,5.6,ESE,4.6,-,N/A,,Partly Cloudy,110,2014-01-28 11:00:00
11:30 AM,57.2,51.8,82,30.06,6.2,NNE,5.8,-,N/A,,Partly Cloudy,30,2014-01-28 11:30:00
12:00 PM,58,52,75,30.06,6,NNE,6.9,,,,Clear,20,2014-01-28 12:00:00
12:00 PM,59.0,51.8,77,30.06,6.2,NNE,6.9,-,N/A,,Mostly Cloudy,30,2014-01-28 12:00:00
12:30 PM,59.0,53.6,82,30.06,6.2,North,6.9,-,N/A,,Mostly Cloudy,350,2014-01-28 12:30:00
1:00 PM,59.0,51.8,77,30.04,6.2,North,9.2,-,N/A,,Mostly Cloudy,10,2014-01-28 13:00:00
1:30 PM,59.0,51.8,77,30.04,6.2,North,6.9,-,N/A,,Mostly Cloudy,10,2014-01-28 13:30:00
2:00 PM,60.8,51.8,72,30.01,6.2,NNE,5.8,-,N/A,,Mostly Cloudy,20,2014-01-28 14:00:00
2:30 PM,60.8,50.0,68,30.01,6.2,NNE,8.1,-,N/A,,Mostly Cloudy,20,2014-01-28 14:30:00
3:00 PM,60,50,60,29.97,6,NE,5.8,,,,Clear,40,2014-01-28 15:00:00
3:00 PM,60.8,50.0,68,30.01,6.2,NNE,9.2,-,N/A,,Mostly Cloudy,30,2014-01-28 15:00:00
3:30 PM,60.8,50.0,68,29.98,6.2,NNE,6.9,-,N/A,,Mostly Cloudy,20,2014-01-28 15:30:00
4:00 PM,62.6,50.0,63,29.98,6.2,NNE,6.9,-,N/A,,Scattered Clouds,20,2014-01-28 16:00:00
4:30 PM,60.8,50.0,68,29.98,6.2,NNE,6.9,-,N/A,,Scattered Clouds,20,2014-01-28 16:30:00
5:00 PM,60.8,48.2,63,29.98,6.2,ENE,5.8,-,N/A,,Scattered Clouds,60,2014-01-28 17:00:00
5:30 PM,60.8,50.0,68,29.95,6.2,ENE,5.8,-,N/A,,Scattered Clouds,60,2014-01-28 17:30:00
6:00 PM,60,49,59,29.95,6,NE,3.5,,,,Partly Cloudy,50,2014-01-28 18:00:00
6:00 PM,60.8,50.0,68,29.98,6.2,ENE,4.6,-,N/A,,Scattered Clouds,60,2014-01-28 18:00:00
6:30 PM,59.0,50.0,72,29.98,6.2,NE,2.3,-,N/A,,Scattered Clouds,50,2014-01-28 18:30:00
7:00 PM,59.0,48.2,67,29.95,6.2,NE,3.5,-,N/A,,Scattered Clouds,40,2014-01-28 19:00:00
7:30 PM,57.2,48.2,72,29.98,6.2,North,5.8,-,N/A,,Scattered Clouds,10,2014-01-28 19:30:00
8:00 PM,57.2,46.4,67,29.98,6.2,North,9.2,-,N/A,,Scattered Clouds,10,2014-01-28 20:00:00
8:30 PM,57.2,46.4,67,29.98,6.2,NNE,9.2,-,N/A,,Scattered Clouds,20,2014-01-28 20:30:00
9:00 PM,54,47,69,29.99,6,NNE,9.2,,,,Partly Cloudy,30,2014-01-28 21:00:00
9:00 PM,53.6,46.4,77,29.98,6.2,NNE,9.2,-,N/A,,Scattered Clouds,30,2014-01-28 21:00:00
9:30 PM,53.6,46.4,77,29.98,6.2,NNE,5.8,-,N/A,,Scattered Clouds,30,2014-01-28 21:30:00
10:00 PM,51.8,46.4,82,29.98,6.2,NNE,3.5,-,N/A,,Scattered Clouds,30,2014-01-28 22:00:00
10:30 PM,51.8,46.4,82,29.98,6.2,East,5.8,-,N/A,,Scattered Clouds,90,2014-01-28 22:30:00
11:00 PM,50.0,46.4,87,29.98,6.2,East,4.6,-,N/A,,Scattered Clouds,100,2014-01-28 23:00:00
11:30 PM,50.0,46.4,87,29.95,6.2,East,3.5,-,N/A,,Scattered Clouds,80,2014-01-28 23:30:00